Regional Weather Roundup
Issued by NWS

Current Version | Previous Version | Text Only | Print | Product List | Glossary Off
Versions: 1 2 3 4 5 6 7 8 9 10 11 12 13 14 15 16 17 18 19 20 21 22 23 24 25 26 27 28 29 30 31 32 33 34 35 36 37 38 39 40 41 42 43 44 45 46 47 48 49 50

000
ASUS44 KMEG 232000
RWRTN
TENNESSEE HOURLY STATE WEATHER ROUNDUP
NATIONAL WEATHER SERVICE MEMPHIS TN
200 PM CST THU FEB 23 2017

TNZ002-004-019-021-049-052-054-088>092-232100-
WEST TENNESSEE

CITY           SKY/WX    TMP DP  RH WIND       PRES   REMARKS
MEMPHIS INTL   MOSUNNY   77  56  48 S13G20    29.70F
NWS MEMPHIS      N/A     76 N/A N/A MISG        N/A
JACKSON        PTSUNNY   74  57  55 S12G18    29.72F
UNION CITY     PTSUNNY   72  52  49 S9        29.70F
PARIS          PTSUNNY   70  55  60 S10       29.73F
$$

TNZ008-025-027-028-033-062-065-066-232100-
NORTH MIDDLE TENNESSEE

CITY           SKY/WX    TMP DP  RH WIND       PRES   REMARKS
NASHVILLE      PTSUNNY   74  54  49 S14       29.78F
CLARKSVILLE    CLOUDY    72  55  55 SW14      29.75F
SMYRNA         CLOUDY    72  56  57 S9        29.78F
CROSSVILLE     PTSUNNY   67  52  58 VRB3      29.83F
$$

TNZ061-075-076-078-094-096-097-232100-
SOUTH MIDDLE TENNESSEE

CITY           SKY/WX    TMP DP  RH WIND       PRES   REMARKS
TULLAHOMA      MOSUNNY   70  54  56 S8        29.80F
WINCHESTER     PTSUNNY   73  55  53 S10       29.80F
MCMINNVILLE    MOSUNNY   73  55  53 SW10      29.80F
COLUMBIA       PTSUNNY   72  64  78 S7        29.76F
SHELBYVILLE    CLOUDY    72  57  60 S13       29.80F
$$

TNZ017-018-042-046-047-232100-
NORTHEAST TENNESSEE

CITY           SKY/WX    TMP DP  RH WIND       PRES   REMARKS
TRI CITIES     MOSUNNY   72  51  47 W5        29.84F
$$

TNZ012-013-036-069-073-074-232100-
CENTRAL EAST TENNESSEE

CITY           SKY/WX    TMP DP  RH WIND       PRES   REMARKS
KNOXVILLE      PTSUNNY   71  54  54 CALM      29.81F
OAK RIDGE      SUNNY     71  53  52 W5        29.82F
GATLINBURG     SUNNY     72  54  53 VRB5      29.80F
$$

TNZ083-085-099-232100-
SOUTHEAST TENNESSEE

CITY           SKY/WX    TMP DP  RH WIND       PRES   REMARKS
CHATTANOOGA    PTSUNNY   75  53  46 S7        29.80F
$$

SKY/WX REPORTED AS FAIR MEANS FEW OR NO CLOUDS BELOW
12 THOUSAND FEET.





USA.gov is the U.S. government's official web portal to all federal, state and local government web resources and services.